Content
SEND FEEDBACK

Daily
Averages
Monthly
Summary
United Kingdom

LONDON, ENGLAND


Home > Europe > United Kingdom > England
Elevation: 203 feet     Latitude: 51 09N     Longitude: 000 11W

WEATHER
 
SELECT A DAY
Number of Records: 292,742;   Date Range: 7/1/96 - 7/24/14
 
SHARE

PRINT THIS DATA

[ ← Previous Day ]
WEATHER ALMANAC - APRIL 26, 2013
[ Next Day → ]
[ °C ]   °F
Weather ElementAverageHighLow
Temperature48.7 °F55.4 °F (2:20 pm)41 °F (10:50 pm)
Dewpoint37.3 °F48.2 °F (2:20 am)28.4 °F (6:50 pm)
Humidity66.9 %93 % (8:20 am)38 % (2:50 pm)
Barometer29.97 in30.04 in (12:50 am)29.92 in (3:50 pm)
Wind Speed10 mph18.4 mph (5:50 pm)
Weather ElementAverage
Visibility6 mi
Wind DirectionNW (316.4 °)

Weather ElementTotal
Precipitation---
Heating Degree Days16.8 (Base 65)
Averaged from 47 records on April 26, 2013
WEATHER CONDITIONS BREAKOUT
WIND DIRECTION BREAKOUT
WEATHER BY HOUR - APRIL 26, 2013
[ °C ]   °F
Local TimeTemperatureDewpointHumidityBarometerVisibilityWind DirectionWind SpeedGust SpeedPrecipitationEventsConditions
12:50 AM53.6 °F46.4 °F77 %30.04 inNW (320°)4.6 mphClear
1:20 AM53.6 °F46.4 °F77 %30.01 inNW (310°)6.9 mphClear
1:50 AM53.6 °F46.4 °F77 %30.01 inNW (320°)5.8 mphClear
2:20 AM53.6 °F48.2 °F82 %30.01 in6.2 miNW (320°)8.1 mphScattered Clouds
2:50 AM53.6 °F46.4 °F77 %30.01 in6.2 miNW (320°)11.5 mphMostly Cloudy
3:20 AM51.8 °F46.4 °F82 %30.01 in5.6 miNNW (330°)13.8 mphMostly Cloudy
3:50 AM50.0 °F44.6 °F82 %30.01 in6.2 miNNW (330°)16.1 mphMostly Cloudy
4:20 AM48.2 °F42.8 °F82 %30.01 in6.2 miNNW (330°)17.3 mphMostly Cloudy
4:50 AM46.4 °F42.8 °F87 %30.01 in6.2 miNorth (350°)12.7 mphMostly Cloudy
5:20 AM46.4 °F42.8 °F87 %30.01 in6.2 miNorth (350°)10.4 mphRainLight Rain
5:50 AM46.4 °F42.8 °F87 %30.01 in6.2 miNNW (340°)9.2 mphRainLight Rain
6:20 AM46.4 °F42.8 °F87 %30.01 in6.2 miNNW (330°)11.5 mphMostly Cloudy
6:50 AM46.4 °F41.0 °F81 %30.01 in6.2 miNNW (340°)12.7 mphRainLight Rain
7:20 AM44.6 °F41.0 °F87 %30.01 in3.7 miNorth (350°)10.4 mphRainLight Rain
7:50 AM44.6 °F41.0 °F87 %30.01 in4.3 miNorth (350°)8.1 mphRainLight Rain
8:20 AM44.6 °F42.8 °F93 %30.01 in6.2 miNorth (360°)9.2 mphRainLight Rain
8:50 AM44.6 °F41.0 °F87 %30.01 in6.2 miNorth (360°)10.4 mphRainLight Rain
9:20 AM44.6 °F41.0 °F87 %30.01 in6.2 miNNW (340°)6.9 mphRainLight Rain
9:50 AM44.6 °F42.8 °F93 %30.01 in6.2 miNorth (360°)4.6 mphPartly Cloudy
10:20 AM46.4 °F42.8 °F87 %30.01 in6.2 miNNW (340°)8.1 mphScattered Clouds
10:50 AM46.4 °F42.8 °F87 %30.01 in6.2 miNW (320°)9.2 mphMostly Cloudy
11:20 AM48.2 °F41.0 °F76 %30.01 in6.2 miNNW (340°)9.2 mphMostly Cloudy
11:50 AM50.0 °F39.2 °F66 %29.98 in6.2 miNNW (330°)10.4 mphScattered Clouds
12:20 PM51.8 °F39.2 °F62 %29.98 in6.2 miNNW (330°)9.2 mphPartly Cloudy
12:50 PM51.8 °F37.4 °F58 %29.98 in6.2 miNNW (330°)8.1 mphScattered Clouds
1:20 PM51.8 °F37.4 °F58 %29.98 in6.2 miNNW (330°)11.5 mphScattered Clouds
1:50 PM51.8 °F35.6 °F54 %29.95 in6.2 miNW (310°)15.0 mphPartly Cloudy
2:20 PM55.4 °F32.0 °F41 %29.95 in6.2 miWNW (300°)13.8 mphPartly Cloudy
2:50 PM55.4 °F30.2 °F38 %29.95 in6.2 miNW (310°)12.7 mphScattered Clouds
3:20 PM50.0 °F32.0 °F50 %29.95 in6.2 miWest (260°)12.7 mphRainLight Rain Showers
3:50 PM53.6 °F33.8 °F47 %29.92 in6.2 miWest (270°)9.2 mphPartly Cloudy
4:20 PM53.6 °F32.0 °F44 %29.92 in6.2 miNW (310°)9.2 mphPartly Cloudy
4:50 PM51.8 °F32.0 °F47 %29.92 inNW (320°)11.5 mphClear
5:20 PM51.8 °F30.2 °F44 %29.92 inWNW (300°)10.4 mphClear
5:50 PM50.0 °F30.2 °F47 %29.92 inNW (310°)18.4 mphClear
6:20 PM50.0 °F30.2 °F47 %29.92 inWNW (290°)11.5 mphClear
6:50 PM50.0 °F28.4 °F43 %29.92 inWNW (290°)6.9 mphClear
7:20 PM50.0 °F30.2 °F47 %29.92 in6.2 miWest (280°)10.4 mphThunderstormScattered Clouds
7:50 PM48.2 °F28.4 °F46 %29.92 in6.2 miWest (270°)8.1 mphPartly Cloudy
8:20 PM48.2 °F28.4 °F46 %29.92 inNNW (340°)12.7 mphClear
8:50 PM46.4 °F28.4 °F50 %29.92 inWNW (290°)5.8 mphClear
9:20 PM46.4 °F30.2 °F53 %29.92 in6.2 miWNW (300°)11.5 mphPartly Cloudy
9:50 PM44.6 °F30.2 °F57 %29.92 inWest (270°)6.9 mphClear
10:20 PM44.6 °F30.2 °F57 %29.92 inWest (280°)6.9 mphClear
10:50 PM41.0 °F30.2 °F65 %29.92 inWest (260°)5.8 mphClear
11:20 PM41.0 °F30.2 °F65 %29.92 inWest (280°)6.9 mphClear
11:50 PM42.8 °F30.2 °F61 %29.92 inWNW (300°)8.1 mphClear
Hourly data recorded from EGKK, located miles away from London, England







STORIES FROM OUR PARTNERS